This is the latest recevied weather packets stored in our database for station/object F4NFR-13. If no packets are shown the sender has not sent any weather packets the latest 10 day(s).
| Time | Temp. | Humidity | Pressure | Rain* | Wind** | Luminosity | Snow |
|---|---|---|---|---|---|---|---|
| 1777900989 | 17.22° C | 73% | 1015 hPa | 0 mm | - | 170 W/m² | - |
| 1777900687 | 17.22° C | 77% | 1015 hPa | 0 mm | - | 266 W/m² | - |
| 1777900384 | 17.22° C | 75% | 1015 hPa | 0 mm | - | 223 W/m² | - |
| 1777900082 | 17.22° C | 76% | 1015 hPa | 0 mm | - | 0 W/m² | - |
| 1777899477 | 17.22° C | 73% | 1015 hPa | 0 mm | - | 168 W/m² | - |
| 1777899175 | 17.22° C | 73% | 1015.4 hPa | 0 mm | - | 290 W/m² | - |
| 1777898873 | 16.11° C | 76% | 1015.4 hPa | 0 mm | - | 0 W/m² | - |
| 1777898268 | 16.11° C | 75% | 1015.4 hPa | 0 mm | - | 0 W/m² | - |
| 1777897966 | 17.22° C | 75% | 1015.4 hPa | 0 mm | - | 0 W/m² | - |
| 1777897663 | 16.11° C | 75% | 1015.4 hPa | 0 mm | - | 0 W/m² | - |
| 1777897361 | 17.22° C | 71% | 1015.4 hPa | 0 mm | - | 0 W/m² | - |
| 1777897058 | 17.22° C | 74% | 1015.4 hPa | 0 mm | - | 108 W/m² | - |
| 1777896454 | 17.22° C | 77% | 1015.4 hPa | 0 mm | - | - | - |
| 1777896151 | 15° C | 80% | 1015.4 hPa | 0 mm | - | 0 W/m² | - |
| 1777895849 | 16.11° C | 76% | 1015.4 hPa | 0 mm | - | 0 W/m² | - |
| 1777895547 | 17.22° C | 75% | 1015.4 hPa | 0 mm | - | 0 W/m² | - |
| 1777895244 | 16.11° C | 75% | 1015.4 hPa | 0 mm | - | 0 W/m² | - |
| 1777894942 | 16.11° C | 74% | 1015.4 hPa | 0 mm | - | 0 W/m² | - |
| 1777894639 | 16.11° C | 74% | 1015.4 hPa | 0 mm | - | 220 W/m² | - |
| 1777894337 | 16.11° C | 76% | 1015.7 hPa | 0 mm | - | 0 W/m² | - |
| 1777894035 | 16.11° C | 75% | 1015.7 hPa | 0 mm | - | 0 W/m² | - |
| 1777893733 | 16.11° C | 75% | 1015.7 hPa | 0 mm | - | 0 W/m² | - |
| 1777893430 | 16.11° C | 76% | 1015.7 hPa | 0 mm | - | 0 W/m² | - |
| 1777892826 | 16.11° C | 73% | 1015.7 hPa | 0 mm | - | 76 W/m² | - |
| 1777892523 | 15° C | 78% | 1015.7 hPa | 0 mm | - | 136 W/m² | - |
* Rain latest hour (hover to see other rain measurements)
** Current wind speed in m/s (hover to see current wind gust speed)